• în România
  • Lista ţărilor
  • Pe 7 zile
  • Temperatura apei
  • Hartă satelitară
  • Meteo pe hartă
  • Widget-uri
  • user-avatar
    Intrare

    Meteo pe oră la Córdoba

    Astăzi, 20 Ianuarie, Sâmbătă

    Timp Temperatura Precipitaţii Vânt Presiune Umiditate
    00:00 +23°C° 0 mm 2 m/s 723 mmHg 46%
    01:00 +23°C° 0 mm 2 m/s 723 mmHg 46%
    02:00 +21°C° 0 mm 2 m/s 723 mmHg 43%
    03:00 +21°C° 0 mm 2 m/s 722 mmHg 44%
    04:00 +22°C° 0 mm 1 m/s 722 mmHg 44%
    05:00 +22°C° 0 mm 1 m/s 722 mmHg 44%
    06:00 +24°C° 0 mm 1 m/s 723 mmHg 42%
    07:00 +25°C° 0 mm 1 m/s 723 mmHg 40%
    08:00 +27°C° 0 mm 1 m/s 723 mmHg 38%
    09:00 +28°C° 0 mm 1 m/s 723 mmHg 36%
    10:00 +29°C° 0 mm 2 m/s 723 mmHg 35%
    11:00 +30°C° 0 mm 3 m/s 723 mmHg 33%
    12:00 +31°C° 0 mm 3 m/s 723 mmHg 32%
    13:00 +33°C° 0 mm 4 m/s 723 mmHg 31%
    14:00 +34°C° 0 mm 4 m/s 722 mmHg 31%
    15:00 +34°C° 0 mm 4 m/s 722 mmHg 31%
    16:00 +33°C° 0 mm 4 m/s 721 mmHg 32%
    17:00 +33°C° 0 mm 4 m/s 721 mmHg 32%
    18:00 +30°C° 0 mm 4 m/s 721 mmHg 38%
    19:00 +28°C° 0 mm 3 m/s 721 mmHg 44%
    20:00 +26°C° 0 mm 2 m/s 721 mmHg 51%
    21:00 +25°C° 0,1 mm 2 m/s 721 mmHg 55%
    22:00 +24°C° 0,1 mm 2 m/s 722 mmHg 59%
    23:00 +23°C° 0,1 mm 2 m/s 722 mmHg 63%

    Mâine, 21 Ianuarie, Duminică

    Timp Temperatura Precipitaţii Vânt Presiune Umiditate
    00:00 +23°C° 0 mm 2 m/s 722 mmHg 64%
    01:00 +21°C° 0 mm 2 m/s 722 mmHg 65%
    02:00 +21°C° 0 mm 2 m/s 721 mmHg 65%
    03:00 +20°C° 0 mm 2 m/s 721 mmHg 65%
    04:00 +21°C° 0 mm 1 m/s 721 mmHg 65%
    05:00 +21°C° 0 mm 1 m/s 721 mmHg 64%
    06:00 +23°C° 0 mm 1 m/s 721 mmHg 58%
    07:00 +25°C° 0 mm 1 m/s 721 mmHg 51%
    08:00 +27°C° 0 mm 1 m/s 722 mmHg 44%
    09:00 +29°C° 0 mm 2 m/s 721 mmHg 40%
    10:00 +30°C° 0 mm 3 m/s 721 mmHg 36%
    11:00 +33°C° 0 mm 4 m/s 721 mmHg 32%
    12:00 +34°C° 0 mm 4 m/s 721 mmHg 30%
    13:00 +34°C° 0 mm 4 m/s 720 mmHg 29%
    14:00 +35°C° 0 mm 4 m/s 720 mmHg 27%
    15:00 +35°C° 0 mm 4 m/s 719 mmHg 28%
    16:00 +35°C° 0 mm 4 m/s 719 mmHg 28%
    17:00 +35°C° 0 mm 4 m/s 718 mmHg 28%
    18:00 +31°C° 0 mm 3 m/s 718 mmHg 33%
    19:00 +29°C° 0 mm 2 m/s 718 mmHg 38%
    20:00 +26°C° 0 mm 2 m/s 718 mmHg 43%
    21:00 +26°C° 0 mm 2 m/s 718 mmHg 45%
    22:00 +25°C° 0 mm 2 m/s 718 mmHg 46%
    23:00 +24°C° 0 mm 2 m/s 719 mmHg 48%

    Poimâine, 22 Ianuarie, Luni

    Timp Temperatura Precipitaţii Vânt Presiune Umiditate
    00:00 +24°C° 0 mm 2 m/s 718 mmHg 49%
    01:00 +24°C° 0 mm 1 m/s 718 mmHg 50%
    02:00 +23°C° 0 mm 1 m/s 718 mmHg 51%
    03:00 +23°C° 0 mm 1 m/s 718 mmHg 52%
    04:00 +23°C° 0 mm 1 m/s 718 mmHg 53%
    05:00 +23°C° 0 mm 1 m/s 717 mmHg 54%
    06:00 +25°C° 0 mm 1 m/s 718 mmHg 50%
    07:00 +27°C° 0 mm 1 m/s 718 mmHg 46%
    08:00 +29°C° 0 mm 1 m/s 719 mmHg 42%
    09:00 +31°C° 0 mm 2 m/s 719 mmHg 38%
    10:00 +34°C° 0 mm 2 m/s 719 mmHg 34%
    11:00 +35°C° 0 mm 3 m/s 719 mmHg 29%
    12:00 +36°C° 0 mm 3 m/s 718 mmHg 28%
    13:00 +37°C° 0 mm 3 m/s 717 mmHg 26%
    14:00 +37°C° 0 mm 2 m/s 717 mmHg 24%
    15:00 +37°C° 0 mm 2 m/s 716 mmHg 24%
    16:00 +37°C° 0 mm 2 m/s 716 mmHg 25%
    17:00 +37°C° 0 mm 2 m/s 715 mmHg 25%
    18:00 +35°C° 0,1 mm 2 m/s 716 mmHg 30%
    19:00 +31°C° 0,1 mm 1 m/s 716 mmHg 35%
    20:00 +29°C° 0,1 mm 1 m/s 716 mmHg 39%
    21:00 +28°C° 0 mm 2 m/s 716 mmHg 43%
    22:00 +27°C° 0 mm 2 m/s 716 mmHg 46%
    23:00 +26°C° 0 mm 2 m/s 717 mmHg 49%

    23 Ianuarie, Marţi

    Timp Temperatura Precipitaţii Vânt Presiune Umiditate
    00:00 +25°C° 0 mm 2 m/s 717 mmHg 51%
    01:00 +25°C° 0 mm 2 m/s 716 mmHg 54%
    02:00 +24°C° 0 mm 2 m/s 716 mmHg 56%
    03:00 +24°C° 0 mm 2 m/s 716 mmHg 57%
    04:00 +24°C° 0 mm 2 m/s 716 mmHg 57%
    05:00 +24°C° 0 mm 2 m/s 716 mmHg 58%
    06:00 +26°C° 0 mm 1 m/s 717 mmHg 53%
    07:00 +28°C° 0 mm 1 m/s 718 mmHg 48%
    08:00 +30°C° 0 mm 1 m/s 718 mmHg 43%
    09:00 +32°C° 0 mm 1 m/s 718 mmHg 38%
    10:00 +35°C° 0 mm 2 m/s 718 mmHg 34%
    11:00 +37°C° 0 mm 2 m/s 718 mmHg 30%
    12:00 +37°C° 0 mm 2 m/s 718 mmHg 28%
    13:00 +38°C° 0 mm 2 m/s 717 mmHg 26%
    14:00 +39°C° 0 mm 1 m/s 717 mmHg 24%
    15:00 +39°C° 0 mm 2 m/s 716 mmHg 24%
    16:00 +39°C° 0 mm 2 m/s 716 mmHg 23%
    17:00 +39°C° 0 mm 2 m/s 716 mmHg 22%
    18:00 +37°C° 0,1 mm 2 m/s 716 mmHg 27%
    19:00 +34°C° 0,1 mm 2 m/s 716 mmHg 33%
    20:00 +30°C° 0,1 mm 1 m/s 717 mmHg 38%
    21:00 +28°C° 0,4 mm 2 m/s 717 mmHg 48%
    22:00 +26°C° 0,4 mm 3 m/s 718 mmHg 58%
    23:00 +23°C° 0,4 mm 4 m/s 718 mmHg 68%

    24 Ianuarie, Miercuri

    Timp Temperatura Precipitaţii Vânt Presiune Umiditate
    00:00 +23°C° 0,1 mm 4 m/s 718 mmHg 67%
    01:00 +24°C° 0,1 mm 3 m/s 718 mmHg 66%
    02:00 +25°C° 0,1 mm 3 m/s 718 mmHg 65%
    03:00 +25°C° 0,1 mm 2 m/s 718 mmHg 63%
    04:00 +24°C° 0,1 mm 2 m/s 718 mmHg 62%
    05:00 +24°C° 0,1 mm 2 m/s 718 mmHg 60%
    06:00 +26°C° 0,1 mm 3 m/s 719 mmHg 55%
    07:00 +27°C° 0,1 mm 4 m/s 719 mmHg 50%
    08:00 +29°C° 0,1 mm 5 m/s 720 mmHg 45%
    09:00 +32°C° 0 mm 5 m/s 720 mmHg 40%
    10:00 +34°C° 0 mm 5 m/s 721 mmHg 34%
    11:00 +36°C° 0 mm 5 m/s 721 mmHg 29%
    12:00 +36°C° 0 mm 5 m/s 721 mmHg 29%
    13:00 +36°C° 0 mm 5 m/s 720 mmHg 30%
    14:00 +37°C° 0 mm 5 m/s 720 mmHg 30%
    15:00 +37°C° 0 mm 5 m/s 720 mmHg 30%
    16:00 +37°C° 0 mm 5 m/s 720 mmHg 30%
    17:00 +37°C° 0 mm 5 m/s 720 mmHg 30%
    18:00 +33°C° 0,9 mm 4 m/s 720 mmHg 43%
    19:00 +29°C° 0,9 mm 3 m/s 721 mmHg 57%
    20:00 +25°C° 0,9 mm 3 m/s 721 mmHg 71%
    21:00 +25°C° 0,3 mm 3 m/s 721 mmHg 72%
    22:00 +24°C° 0,3 mm 2 m/s 722 mmHg 73%
    23:00 +24°C° 0,3 mm 2 m/s 722 mmHg 75%

    25 Ianuarie, Joi

    Timp Temperatura Precipitaţii Vânt Presiune Umiditate
    00:00 +24°C° 0,3 mm 2 m/s 722 mmHg 78%
    01:00 +23°C° 0,3 mm 2 m/s 722 mmHg 81%
    02:00 +23°C° 0,3 mm 2 m/s 722 mmHg 85%
    03:00 +23°C° 0,3 mm 2 m/s 722 mmHg 87%
    04:00 +21°C° 0,3 mm 2 m/s 722 mmHg 88%
    05:00 +21°C° 0,3 mm 2 m/s 723 mmHg 90%
    06:00 +22°C° 0,6 mm 3 m/s 723 mmHg 89%
    07:00 +22°C° 0,6 mm 3 m/s 723 mmHg 89%
    08:00 +22°C° 0,6 mm 3 m/s 724 mmHg 88%
    09:00 +22°C° 0,9 mm 3 m/s 724 mmHg 86%
    10:00 +24°C° 0,9 mm 2 m/s 724 mmHg 84%
    11:00 +24°C° 0,9 mm 2 m/s 723 mmHg 81%
    12:00 +25°C° 0,3 mm 2 m/s 723 mmHg 78%
    13:00 +26°C° 0,3 mm 2 m/s 722 mmHg 74%
    14:00 +27°C° 0,3 mm 2 m/s 722 mmHg 70%
    15:00 +28°C° 0,1 mm 2 m/s 721 mmHg 65%
    16:00 +29°C° 0,1 mm 2 m/s 721 mmHg 60%
    17:00 +30°C° 0,1 mm 2 m/s 721 mmHg 55%
    18:00 +28°C° 0 mm 2 m/s 721 mmHg 60%
    19:00 +27°C° 0 mm 2 m/s 721 mmHg 66%
    20:00 +25°C° 0 mm 1 m/s 721 mmHg 71%
    21:00 +25°C° 0 mm 2 m/s 721 mmHg 72%
    22:00 +24°C° 0 mm 2 m/s 721 mmHg 73%
    23:00 +24°C° 0 mm 2 m/s 721 mmHg 75%
    Arată mai mult